Weather History for Litchfield, IL

Change the Weather History Date:

Friday, December 7, 2012

  Actual Average (KSPI) Record (KSPI)
Temperature  
Mean Temperature 48 °F 33 °F  
Max Temperature 51 °F 41 °F 67 °F (1916)
Min Temperature 45 °F 25 °F -7 °F (1882)
Degree Days  
Heating Degree Days 17 32  
Month to date heating degree days 216  
Since 1 July heating degree days 1284  
Cooling Degree Days 0 0  
Month to date cooling degree days 0  
Year to date cooling degree days 1122  
Moisture  
Dew Point 47 °F    
Average Humidity 96    
Maximum Humidity 98    
Minimum Humidity 88    
Precipitation  
Precipitation 0.05 in 0.10 in 1.00 in (1987)
Month to date precipitation 0.66  
Year to date precipitation 35.57  
Snow  
Snow 0.00 in 0.20 in 3.70 in (1909)
Month to date snowfall 0.9  
Since 1 July snowfall 1.5  
Snow Depth -    
Sea Level Pressure  
Sea Level Pressure 29.87 in    
Wind  
Wind Speed 4 mph (East)    
Max Wind Speed 8 mph    
Max Gust Speed -    
Visibility 3 miles    
Events Fog , Rain    
T = Trace of Precipitation, MM = Missing Value Source: NWS Daily Summary

Daily Weather History Graph

Daily Weather History Graph

Search for Another Location

Airport:

Trip Planner

Search our weather history database for the weather conditions in past years. The results will help you decide how hot, cold, wet, or windy it might be!

Date:

Astronomy

Dec. 07, 2012 Rise Set
Actual Time 7:05 AM CST 4:35 PM CST
Civil Twilight 6:35 AM CST 5:05 PM CST
Nautical Twilight 6:01 AM CST 5:39 PM CST
Astronomical Twilight 5:29 AM CST 6:11 PM CST
Moon 12:26 AM CST (12/7) 12:30 PM CST (12/7)
Length of Visible Light 10h 30m
Length of Day
9h 30m
Last Quarter, 38% of the Moon is Illuminated
Dec 7
Last Quarter
Dec 13
New
Dec 19
First Quarter
Dec 28
Full
Jan 4
Last Quarter

Hourly Weather History & Observations

Time (CST) Temp. Windchill Dew Point Humidity Pressure Visibility Wind Dir Wind Speed Gust Speed Precip Events Conditions
12:15 AM 45.5 °F 44.2 °F 42.3 °F 88% 29.94 in 10.0 mi SE 3.5 mph - N/A   Clear
12:35 AM 45.5 °F 43.2 °F 42.4 °F 89% 29.94 in 10.0 mi ESE 4.6 mph - N/A   Mostly Cloudy
12:55 AM 45.5 °F 44.2 °F 42.8 °F 90% 29.94 in 10.0 mi SE 3.5 mph - N/A   Overcast
1:15 AM 45.5 °F 44.2 °F 42.8 °F 90% 29.94 in 10.0 mi SSE 3.5 mph - N/A   Mostly Cloudy
1:35 AM 45.9 °F 42.9 °F 43.2 °F 90% 29.93 in 10.0 mi SE 5.8 mph - N/A   Scattered Clouds
1:55 AM 46.4 °F 44.3 °F 43.3 °F 89% 29.93 in 10.0 mi SSE 4.6 mph - N/A   Clear
2:15 AM 46.0 °F 44.8 °F 43.3 °F 90% 29.93 in 10.0 mi SSE 3.5 mph - N/A   Clear
2:35 AM 46.0 °F 43.1 °F 43.7 °F 92% 29.93 in 7.0 mi SE 5.8 mph - N/A   Clear
2:55 AM 46.4 °F 45.2 °F 43.9 °F 91% 29.92 in 7.0 mi SE 3.5 mph - N/A   Clear
3:15 AM 46.2 °F 45.0 °F 43.9 °F 92% 29.91 in 7.0 mi East 3.5 mph - N/A   Scattered Clouds
3:35 AM 46.2 °F 45.0 °F 43.9 °F 92% 29.91 in 7.0 mi East 3.5 mph - N/A   Scattered Clouds
3:55 AM 46.0 °F 43.9 °F 44.1 °F 93% 29.90 in 7.0 mi East 4.6 mph - N/A   Scattered Clouds
4:15 AM 46.6 °F - 44.8 °F 93% 29.90 in 7.0 mi SE 5.8 mph - N/A   Scattered Clouds
4:35 AM 47.3 °F - 45.0 °F 92% 29.90 in 7.0 mi SE 6.9 mph - N/A   Mostly Cloudy
5:15 AM 47.3 °F - 45.5 °F 93% 29.88 in 4.0 mi NE 3.5 mph - N/A   Mostly Cloudy
5:35 AM 47.3 °F - 45.9 °F 95% 29.90 in 3.0 mi East 5.8 mph - N/A   Overcast
5:55 AM 47.3 °F - 45.7 °F 94% 29.90 in 3.0 mi East 4.6 mph - N/A   Overcast
6:15 AM 47.3 °F - 45.7 °F 94% 29.90 in 2.5 mi East 5.8 mph - N/A   Mostly Cloudy
6:35 AM 47.3 °F - 45.9 °F 95% 29.90 in 2.0 mi ESE 5.8 mph - N/A   Overcast
6:55 AM 47.3 °F - 46.0 °F 95% 29.90 in 1.8 mi East 4.6 mph - N/A   Overcast
7:15 AM 47.3 °F - 46.0 °F 95% 29.89 in 1.2 mi East 3.5 mph - N/A   Overcast
7:35 AM 46.9 °F - 45.9 °F 96% 29.90 in 0.5 mi NE 4.6 mph - N/A Fog Fog
7:55 AM 46.9 °F - 45.9 °F 96% 29.90 in 0.5 mi NE 5.8 mph - N/A Fog Fog
8:15 AM 46.9 °F - 46.0 °F 97% 29.90 in 0.2 mi ENE 6.9 mph - N/A Fog Fog
8:35 AM 47.3 °F - 46.4 °F 97% 29.90 in 0.2 mi East 6.9 mph - N/A Fog Fog
8:55 AM 47.3 °F - 46.4 °F 97% 29.91 in 0.2 mi Calm Calm - N/A Rain Light Rain
9:15 AM 47.5 °F - 46.6 °F 97% 29.90 in 0.2 mi ENE 5.8 mph - N/A Fog Fog
9:35 AM 47.8 °F - 46.9 °F 97% 29.89 in 0.5 mi NE 5.8 mph - N/A Fog Fog
9:55 AM 48.4 °F - 47.5 °F 97% 29.88 in 0.2 mi East 8.1 mph - N/A Fog Fog
10:15 AM 49.1 °F - 48.2 °F 97% 29.88 in 1.2 mi East 8.1 mph - N/A   Overcast
10:35 AM 49.1 °F - 48.4 °F 97% 29.88 in 2.0 mi East 4.6 mph - N/A Rain Rain
10:55 AM 49.3 °F - 48.6 °F 97% 29.86 in 1.8 mi ENE 4.6 mph - N/A   Drizzle
11:15 AM 49.5 °F - 48.7 °F 97% 29.86 in 2.0 mi East 5.8 mph - 0.01 in Rain Rain
11:35 AM 49.8 °F - 49.1 °F 97% 29.85 in 2.5 mi ESE 3.5 mph - 0.03 in   Drizzle
11:55 AM 50.0 °F - 49.1 °F 97% 29.84 in 4.0 mi ESE 4.6 mph - 0.04 in Rain Light Rain
12:15 PM 50.2 °F - 49.3 °F 97% 29.84 in 2.5 mi ESE 4.6 mph - N/A   Overcast
12:35 PM 50.2 °F - 49.3 °F 97% 29.83 in 2.5 mi ESE 4.6 mph - 0.01 in   Overcast
12:55 PM 50.4 °F - 49.5 °F 97% 29.82 in 2.5 mi ESE 3.5 mph - 0.01 in   Overcast
1:15 PM 50.5 °F - 49.6 °F 97% 29.82 in 1.2 mi Calm Calm - N/A   Overcast
1:35 PM 50.4 °F - 49.5 °F 97% 29.81 in 0.2 mi Calm Calm - N/A Fog Fog
1:55 PM 50.5 °F - 49.6 °F 97% 29.81 in 0.2 mi Calm Calm - N/A Fog Fog
2:15 PM 50.9 °F - 50.0 °F 97% 29.81 in 0.2 mi SSW 3.5 mph - N/A Fog Fog
2:35 PM 51.1 °F - 50.4 °F 97% 29.81 in 0.2 mi SW 3.5 mph - N/A Fog Fog
2:55 PM 51.4 °F - 50.9 °F 98% 29.82 in 0.2 mi West 5.8 mph - N/A Fog Fog
3:15 PM 51.8 °F - 50.9 °F 97% 29.82 in 1.8 mi West 5.8 mph - N/A   Overcast
3:35 PM 51.6 °F - 50.9 °F 97% 29.82 in 1.8 mi West 4.6 mph - N/A   Overcast
3:55 PM 51.3 °F - 50.5 °F 97% 29.82 in 2.0 mi West 5.8 mph - N/A   Overcast
4:15 PM 50.9 °F - 50.2 °F 97% 29.83 in 0.2 mi Calm Calm - N/A Fog Fog
4:35 PM 50.7 °F - 50.0 °F 97% 29.83 in 0.2 mi Calm Calm - N/A Fog Fog
4:55 PM 50.5 °F - 50.0 °F 98% 29.83 in 0.5 mi WNW 3.5 mph - N/A Fog Fog
5:15 PM 50.5 °F - 50.0 °F 98% 29.84 in 0.2 mi Calm Calm - N/A Fog Fog
5:35 PM 50.4 °F - 49.6 °F 97% 29.84 in 0.5 mi NNW 3.5 mph - N/A Fog Fog
5:55 PM 50.2 °F - 49.5 °F 97% 29.85 in 0.5 mi Calm Calm - N/A Fog Fog
6:15 PM 50.0 °F - 49.3 °F 97% 29.85 in 0.5 mi Calm Calm - N/A Fog Fog
6:35 PM 49.6 °F - 49.1 °F 98% 29.86 in 1.0 mi North 3.5 mph - N/A   Overcast
6:55 PM 49.5 °F - 48.9 °F 98% 29.86 in 2.0 mi Calm Calm - N/A   Overcast
7:15 PM 49.3 °F - 48.6 °F 97% 29.87 in 1.8 mi Calm Calm - N/A   Overcast
7:35 PM 48.9 °F - 48.2 °F 97% 29.86 in 1.5 mi Calm Calm - N/A   Overcast
7:55 PM 48.7 °F - 48.2 °F 98% 29.86 in 1.5 mi Calm Calm - N/A   Overcast
8:15 PM 48.6 °F - 47.8 °F 97% 29.86 in 1.2 mi NNW 3.5 mph - N/A   Mostly Cloudy
8:55 PM 48.2 °F - 47.3 °F 97% 29.85 in 0.2 mi North 8.1 mph - N/A Fog Fog
9:15 PM 47.7 °F - 46.9 °F 97% 29.85 in 0.2 mi North 8.1 mph - N/A Fog Fog
9:35 PM 47.3 °F - 46.6 °F 97% 29.85 in 0.2 mi Calm Calm - N/A Fog Fog
9:55 PM 47.1 °F - 46.4 °F 97% 29.85 in 0.2 mi Calm Calm - N/A Fog Fog
10:35 PM 46.4 °F - 45.7 °F 97% 29.86 in 0.2 mi Calm Calm - N/A Fog Fog
10:55 PM 46.4 °F 44.3 °F 45.5 °F 97% 29.87 in 0.2 mi West 4.6 mph - N/A Fog Fog
11:15 PM 46.4 °F 45.2 °F 45.7 °F 97% 29.87 in 0.2 mi West 3.5 mph - N/A Fog Fog
11:35 PM 46.8 °F - 46.0 °F 97% 29.87 in 0.5 mi NW 6.9 mph - N/A Fog Fog
11:55 PM 46.8 °F - 46.0 °F 97% 29.86 in 0.2 mi NNW 4.6 mph - N/A Rain Light Rain